• In Romania
  • List of Countries
  • For 7 days
  • Water Temperature
  • Satellite Maps
  • Weather Map
  • Weather Widgets
  • user-avatar
    Login

    Hourly Weather Polyanskoe

    Today, 16 August, Thursday

    Time Temperature Precipitation Wind Pressure Humidity
    00:00 +19°C° 0 mm 2 mps 743 mmHg 52%
    01:00 +19°C° 0 mm 2 mps 743 mmHg 54%
    02:00 +19°C° 0 mm 2 mps 743 mmHg 55%
    03:00 +18°C° 0 mm 2 mps 743 mmHg 57%
    04:00 +18°C° 0 mm 2 mps 743 mmHg 58%
    05:00 +18°C° 0 mm 2 mps 743 mmHg 59%
    06:00 +18°C° 0 mm 3 mps 743 mmHg 61%
    07:00 +21°C° 0 mm 3 mps 744 mmHg 56%
    08:00 +23°C° 0 mm 4 mps 744 mmHg 51%
    09:00 +27°C° 0 mm 4 mps 744 mmHg 45%
    10:00 +28°C° 0 mm 4 mps 744 mmHg 43%
    11:00 +29°C° 0 mm 4 mps 744 mmHg 41%
    12:00 +30°C° 0 mm 4 mps 744 mmHg 39%
    13:00 +30°C° 0 mm 4 mps 743 mmHg 38%
    14:00 +31°C° 0 mm 3 mps 743 mmHg 38%
    15:00 +31°C° 0 mm 3 mps 743 mmHg 38%
    16:00 +30°C° 0 mm 3 mps 743 mmHg 41%
    17:00 +30°C° 0 mm 2 mps 743 mmHg 45%
    18:00 +29°C° 0 mm 2 mps 742 mmHg 48%
    19:00 +27°C° 0 mm 2 mps 742 mmHg 51%
    20:00 +26°C° 0 mm 1 mps 742 mmHg 54%
    21:00 +24°C° 0 mm 1 mps 742 mmHg 57%
    22:00 +23°C° 0 mm 1 mps 742 mmHg 58%
    23:00 +23°C° 0 mm 1 mps 742 mmHg 59%

    Tomorrow, 17 August, Friday

    Time Temperature Precipitation Wind Pressure Humidity
    00:00 +22°C° 0 mm 1 mps 742 mmHg 60%
    01:00 +22°C° 0 mm 1 mps 742 mmHg 61%
    02:00 +22°C° 0 mm 1 mps 742 mmHg 62%
    03:00 +21°C° 0 mm 1 mps 742 mmHg 64%
    04:00 +21°C° 0.3 mm 1 mps 742 mmHg 67%
    05:00 +21°C° 0.3 mm 1 mps 742 mmHg 70%
    06:00 +21°C° 0.3 mm 1 mps 742 mmHg 73%
    07:00 +23°C° 0 mm 2 mps 742 mmHg 69%
    08:00 +24°C° 0 mm 2 mps 742 mmHg 65%
    09:00 +26°C° 0 mm 3 mps 743 mmHg 61%
    10:00 +27°C° 0.6 mm 3 mps 743 mmHg 59%
    11:00 +27°C° 0.6 mm 3 mps 743 mmHg 57%
    12:00 +28°C° 0.6 mm 4 mps 743 mmHg 55%
    13:00 +27°C° 0.4 mm 4 mps 743 mmHg 58%
    14:00 +27°C° 0.4 mm 5 mps 742 mmHg 60%
    15:00 +26°C° 0.4 mm 5 mps 742 mmHg 63%
    16:00 +25°C° 0.1 mm 5 mps 742 mmHg 65%
    17:00 +23°C° 0.1 mm 5 mps 742 mmHg 67%
    18:00 +22°C° 0.1 mm 5 mps 742 mmHg 69%
    19:00 +21°C° 0 mm 4 mps 743 mmHg 69%
    20:00 +19°C° 0 mm 4 mps 743 mmHg 69%
    21:00 +18°C° 0 mm 4 mps 743 mmHg 69%
    22:00 +17°C° 0 mm 4 mps 744 mmHg 71%
    23:00 +15°C° 0 mm 4 mps 744 mmHg 72%

    Day after tomorrow, 18 August, Saturday

    Time Temperature Precipitation Wind Pressure Humidity
    00:00 +15°C° 0 mm 4 mps 744 mmHg 74%
    01:00 +14°C° 0 mm 4 mps 744 mmHg 76%
    02:00 +14°C° 0 mm 4 mps 744 mmHg 78%
    03:00 +13°C° 0 mm 4 mps 744 mmHg 80%
    04:00 +13°C° 0 mm 4 mps 744 mmHg 80%
    05:00 +13°C° 0 mm 4 mps 744 mmHg 80%
    06:00 +13°C° 0 mm 4 mps 745 mmHg 80%
    07:00 +15°C° 0 mm 4 mps 745 mmHg 72%
    08:00 +17°C° 0 mm 5 mps 745 mmHg 63%
    09:00 +19°C° 0 mm 5 mps 745 mmHg 55%
    10:00 +20°C° 0 mm 5 mps 745 mmHg 52%
    11:00 +21°C° 0 mm 5 mps 745 mmHg 49%
    12:00 +22°C° 0 mm 5 mps 745 mmHg 46%
    13:00 +22°C° 0 mm 5 mps 745 mmHg 45%
    14:00 +23°C° 0 mm 5 mps 745 mmHg 45%
    15:00 +23°C° 0 mm 5 mps 745 mmHg 44%
    16:00 +22°C° 0 mm 4 mps 745 mmHg 48%
    17:00 +21°C° 0 mm 4 mps 745 mmHg 52%
    18:00 +21°C° 0 mm 3 mps 745 mmHg 56%
    19:00 +19°C° 0 mm 3 mps 745 mmHg 60%
    20:00 +17°C° 0 mm 3 mps 745 mmHg 64%
    21:00 +16°C° 0 mm 3 mps 746 mmHg 68%
    22:00 +14°C° 0 mm 3 mps 746 mmHg 69%
    23:00 +13°C° 0 mm 3 mps 746 mmHg 71%

    19 August, Sunday

    Time Temperature Precipitation Wind Pressure Humidity
    00:00 +12°C° 0 mm 3 mps 746 mmHg 72%
    01:00 +12°C° 0 mm 3 mps 746 mmHg 73%
    02:00 +11°C° 0 mm 3 mps 746 mmHg 74%
    03:00 +12°C° 0 mm 2 mps 746 mmHg 75%
    04:00 +11°C° 0 mm 3 mps 746 mmHg 76%
    05:00 +11°C° 0 mm 3 mps 746 mmHg 77%
    06:00 +11°C° 0 mm 3 mps 746 mmHg 77%
    07:00 +13°C° 0 mm 3 mps 746 mmHg 70%
    08:00 +15°C° 0 mm 4 mps 747 mmHg 63%
    09:00 +18°C° 0 mm 4 mps 747 mmHg 56%
    10:00 +19°C° 0 mm 4 mps 746 mmHg 53%
    11:00 +20°C° 0 mm 4 mps 746 mmHg 49%
    12:00 +21°C° 0 mm 4 mps 746 mmHg 45%
    13:00 +21°C° 0 mm 4 mps 746 mmHg 44%
    14:00 +22°C° 0 mm 4 mps 746 mmHg 44%
    15:00 +22°C° 0 mm 4 mps 745 mmHg 43%
    16:00 +21°C° 0 mm 4 mps 745 mmHg 47%
    17:00 +21°C° 0 mm 3 mps 745 mmHg 51%
    18:00 +20°C° 0 mm 3 mps 745 mmHg 55%
    19:00 +18°C° 0 mm 2 mps 745 mmHg 58%
    20:00 +17°C° 0 mm 2 mps 745 mmHg 61%
    21:00 +15°C° 0 mm 2 mps 745 mmHg 64%
    22:00 +14°C° 0 mm 2 mps 745 mmHg 65%
    23:00 +14°C° 0 mm 2 mps 745 mmHg 67%

    20 August, Monday

    Time Temperature Precipitation Wind Pressure Humidity
    00:00 +13°C° 0 mm 2 mps 745 mmHg 68%
    01:00 +13°C° 0 mm 1 mps 745 mmHg 70%
    02:00 +12°C° 0 mm 1 mps 745 mmHg 71%
    03:00 +12°C° 0 mm 1 mps 745 mmHg 73%
    04:00 +12°C° 0 mm 1 mps 746 mmHg 74%
    05:00 +12°C° 0 mm 1 mps 746 mmHg 75%
    06:00 +12°C° 0 mm 1 mps 746 mmHg 75%
    07:00 +14°C° 0 mm 1 mps 746 mmHg 69%
    08:00 +16°C° 0 mm 1 mps 746 mmHg 62%
    09:00 +18°C° 0 mm 2 mps 746 mmHg 55%
    10:00 +19°C° 0 mm 2 mps 746 mmHg 50%
    11:00 +20°C° 0 mm 2 mps 746 mmHg 46%
    12:00 +21°C° 0 mm 2 mps 746 mmHg 41%
    13:00 +23°C° 0 mm 1 mps 746 mmHg 39%
    14:00 +24°C° 0 mm 1 mps 746 mmHg 37%
    15:00 +24°C° 0 mm 1 mps 745 mmHg 35%
    16:00 +24°C° 0 mm 1 mps 745 mmHg 38%
    17:00 +23°C° 0 mm 1 mps 745 mmHg 41%
    18:00 +22°C° 0 mm 1 mps 745 mmHg 44%
    19:00 +21°C° 0 mm 1 mps 745 mmHg 46%
    20:00 +19°C° 0 mm 1 mps 745 mmHg 48%
    21:00 +16°C° 0 mm 1 mps 745 mmHg 50%
    22:00 +16°C° 0 mm 1 mps 745 mmHg 51%
    23:00 +15°C° 0 mm 1 mps 745 mmHg 52%

    21 August, Tuesday

    Time Temperature Precipitation Wind Pressure Humidity
    00:00 +15°C° 0 mm 1 mps 745 mmHg 53%
    01:00 +14°C° 0 mm 1 mps 745 mmHg 53%
    02:00 +14°C° 0 mm 1 mps 745 mmHg 54%
    03:00 +14°C° 0 mm 1 mps 745 mmHg 55%
    04:00 +14°C° 0 mm 1 mps 745 mmHg 56%
    05:00 +14°C° 0 mm 1 mps 746 mmHg 57%
    06:00 +14°C° 0 mm 1 mps 746 mmHg 58%
    07:00 +16°C° 0 mm 1 mps 746 mmHg 53%
    08:00 +19°C° 0 mm 2 mps 746 mmHg 47%
    09:00 +21°C° 0 mm 2 mps 746 mmHg 42%
    10:00 +23°C° 0 mm 2 mps 746 mmHg 40%
    11:00 +24°C° 0 mm 2 mps 746 mmHg 37%
    12:00 +25°C° 0 mm 3 mps 746 mmHg 35%
    13:00 +26°C° 0 mm 3 mps 746 mmHg 34%
    14:00 +26°C° 0 mm 3 mps 746 mmHg 33%
    15:00 +26°C° 0 mm 3 mps 745 mmHg 33%
    16:00 +26°C° 0 mm 2 mps 745 mmHg 36%
    17:00 +25°C° 0 mm 2 mps 745 mmHg 40%
    18:00 +24°C° 0 mm 1 mps 745 mmHg 44%
    19:00 +22°C° 0 mm 1 mps 745 mmHg 46%
    20:00 +21°C° 0 mm 1 mps 745 mmHg 48%
    21:00 +19°C° 0 mm 1 mps 745 mmHg 50%
    22:00 +19°C° 0 mm 1 mps 745 mmHg 51%
    23:00 +18°C° 0 mm 1 mps 745 mmHg 51%
    Show more